Effective Sunday, March 17, 2024, the National Weather Service National Data Buoy Center will discontinue its Dial-A-Buoy Interactive Voice Response system. For more information, see Service Change Notice 24-06 (PDF).

Station YRSV2 - Taskinas Creek, Chesapeake Bay Reserve, VA Image indicating link to RSS feed of recent meteorological observations for station YRSV2


Conditions at YRSV2 as of
(2:30 am EST)
0730 GMT on 02/29/2024:
     

Click on the graph icon in the table below to see a time series plot of the last five days of that observation.

5-day plot - Wind Direction Wind Direction (WDIR): W ( 280 deg true )
5-day plot - Wind Speed Wind Speed (WSPD): 6.0 kts
5-day plot - Atmospheric Pressure Atmospheric Pressure (PRES):30.18 in
5-day plot - Air Temperature Air Temperature (ATMP): 43.3 °F
5-day plot - Dew Point Dew Point (DEWP): 17.6 °F
5-day plot - Wind Chill Wind Chill (CHILL): 39.2 °F
5-day plot -  Wind Speed, Wind Gust and Atmospheric Pressure Combined plot of Wind Speed, Gust, and Air Pressure
Previous observations
TIME
(EST)
5-day plot - Wind Direction
WDIR
 
5-day plot - Wind Speed
WSPD
kts
5-day plot - Wind Gust
GST
kts
5-day plot - Wave Height
WVHT
ft
5-day plot - Dominant Wave Period
DPD
sec
5-day plot - Average Wave Period
APD
sec
5-day plot - Mean Wave Direction
MWD
 
5-day plot - Atmospheric Pressure
PRES
in
5-day plot - Pressure Tendency
PTDY
in
5-day plot - Air Temperature
ATMP
°F
5-day plot - Water Temperature
WTMP
°F
5-day plot - Dew Point
DEWP
°F
5-day plot - Salinity
SAL
psu
5-day plot - Visibility
VIS
nmi
5-day plot - Tide (above MLLW)
TIDE
ft
2024-02-29 02:15 am W 6.0-----30.15- 43.7- 18.5---
2024-02-29 02:00 am W 5.1-----30.15+0.15 44.1- 18.9---
2024-02-29 01:45 am W 4.1-----30.15- 44.4- 19.2---
2024-02-29 01:30 am W 6.0-----30.12- 45.1- 17.8---
2024-02-29 01:15 amWNW 5.1-----30.12- 45.5- 18.1---
2024-02-29 01:00 amWNW 7.0-----30.12+0.21 46.0- 18.7---
2024-02-29 12:45 amWNW 6.0-----30.09- 46.6- 18.3---
2024-02-29 12:30 am W 6.0-----30.09- 47.3- 18.3---
2024-02-29 12:15 amWNW 7.0-----30.06- 48.2- 16.7---
2024-02-29 12:00 amWNW 6.0-----30.06+0.24 48.9- 17.4---
2024-02-28 11:45 pmWNW 6.0-----30.03- 49.3- 20.1---
2024-02-28 11:30 pmWNW 7.0-----30.03- 50.0- 22.8---
2024-02-28 11:15 pmWNW 8.0-----30.00- 50.7- 25.5---
2024-02-28 11:00 pmWNW 6.0-----30.00+0.24 51.6- 31.6---
2024-02-28 10:45 pmWNW 6.0-----29.97- 52.9- 38.3---
2024-02-28 10:30 pm W 7.0-----29.94- 53.6- 43.3---
2024-02-28 10:15 pm W 6.0-----29.94- 54.3- 46.4---
2024-02-28 10:00 pm W 7.0-----29.91+0.18 57.6- 50.5---
2024-02-28 09:45 pm W 6.0-----29.88- 59.4- 54.3---
2024-02-28 09:30 pm W 2.9-----29.85- 59.5- 57.0---
2024-02-28 09:15 pmWSW 2.9-----29.83- 59.9- 57.6---
2024-02-28 09:00 pmWSW 4.1-----29.83+0.09 60.1- 57.7---
2024-02-28 08:45 pmWSW 5.1-----29.80- 60.4- 57.9---
2024-02-28 08:30 pm SW 4.1-----29.80- 60.6- 58.1---
2024-02-28 08:15 pm SW 2.9-----29.80- 60.4- 58.5---
2024-02-28 08:00 pmSSW 1.0-----29.77+0.00 60.1- 58.5---
2024-02-28 07:45 pm S 1.9-----29.77- 59.7- 58.1---
2024-02-28 07:30 pmWSW 2.9-----29.77- 59.9- 58.3---
2024-02-28 07:15 pmWNW 5.1-----29.77- 59.5- 57.9---
2024-02-28 07:00 pm W 2.9-----29.74+0.00 59.5- 57.6---
2024-02-28 06:45 pm W 1.0-----29.74- 59.7- 56.8---
2024-02-28 06:30 pmWNW 1.9-----29.74- 60.4- 57.2---
2024-02-28 06:15 pm- 0.0-----29.74- 61.3- 57.2---
2024-02-28 06:00 pm- 0.0-----29.74+0.00 61.7- 57.2---
2024-02-28 05:45 pm- 0.0-----29.74- 62.6- 56.8---
2024-02-28 05:30 pm S 1.9-----29.74- 63.1- 56.3---
2024-02-28 05:15 pmSSW 1.9-----29.74- 63.3- 56.8---
2024-02-28 05:00 pmSSW 1.9-----29.77+0.03 63.9- 56.3---
2024-02-28 04:45 pmSSW 2.9-----29.74- 65.1- 55.6---
2024-02-28 04:30 pmSSW 2.9-----29.74- 65.8- 54.9---
2024-02-28 04:15 pmSSW 2.9-----29.74- 66.4- 54.5---
2024-02-28 04:00 pm S 4.1-----29.74-0.03 66.9- 53.8---
2024-02-28 03:45 pmSSW 2.9-----29.74- 67.3- 53.6---
2024-02-28 03:30 pmSSW 4.1-----29.74- 67.3- 53.2---
2024-02-28 03:15 pm S 4.1-----29.74- 67.3- 53.2---
2024-02-28 03:00 pmSSW 4.1-----29.74-0.03 67.6- 53.1---
2024-02-28 02:45 pm S 4.1-----29.74- 67.8- 52.7---
2024-02-28 02:30 pmSSW 5.1-----29.77- 68.2- 52.7---
2024-02-28 02:15 pmSSW 5.1-----29.77- 68.7- 52.2---
2024-02-28 02:00 pmSSW 4.1-----29.74-0.06 68.0- 52.0---
2024-02-28 01:45 pm S 2.9-----29.74- 67.8- 51.8---
2024-02-28 01:30 pmSSW 2.9-----29.77- 67.3- 51.3---
2024-02-28 01:15 pmSSW 4.1-----29.77- 66.9- 51.4---
2024-02-28 01:00 pmSSW 5.1-----29.77-0.03 67.1- 51.1---
2024-02-28 12:45 pmSSW 4.1-----29.77- 68.4- 50.9---
2024-02-28 12:30 pmSSW 5.1-----29.77- 69.3- 50.7---
2024-02-28 12:15 pmSSW 5.1-----29.77- 69.3- 50.7---
2024-02-28 12:00 pmSSW 5.1-----29.77-0.06 68.9- 50.4---
2024-02-28 11:45 amSSW 4.1-----29.80- 68.0- 50.5---
2024-02-28 11:30 amSSW 4.1-----29.77- 68.0- 50.5---
2024-02-28 11:15 am S 5.1-----29.80- 67.8- 50.4---
2024-02-28 11:00 am S 4.1-----29.80+0.00 67.3- 49.8---
2024-02-28 10:45 am S 4.1-----29.80- 67.1- 50.2---
2024-02-28 10:30 am S 5.1-----29.80- 66.4- 50.5---
2024-02-28 10:15 am S 4.1-----29.80- 65.7- 50.4---
2024-02-28 10:00 am S 4.1-----29.80+0.00 65.7- 50.7---
2024-02-28 09:45 am S 4.1-----29.80- 65.5- 50.5---
2024-02-28 09:30 am S 4.1-----29.80- 65.1- 50.7---
2024-02-28 09:15 am S 4.1-----29.83- 64.8- 50.4---
2024-02-28 09:00 am S 4.1-----29.83+0.03 64.4- 50.0---
2024-02-28 08:45 am S 4.1-----29.83- 64.2- 49.8---
2024-02-28 08:30 am S 4.1-----29.83- 63.9- 50.4---
2024-02-28 08:15 am S 4.1-----29.83- 63.5- 50.5---
2024-02-28 08:00 am S 4.1-----29.80+0.00 63.3- 50.7---
2024-02-28 07:45 am S 4.1-----29.80- 62.6- 50.9---
2024-02-28 07:30 am S 2.9-----29.80- 62.1- 50.7---
2024-02-28 07:15 am S 2.9-----29.83- 62.6- 50.9---
2024-02-28 07:00 am S 4.1-----29.80+0.00 62.4- 50.7---
2024-02-28 06:45 am S 4.1-----29.80- 62.1- 50.7---
2024-02-28 06:30 am S 2.9-----29.80- 61.5- 51.4---
2024-02-28 06:15 am S 2.9-----29.80- 60.6- 52.3---
2024-02-28 06:00 am S 4.1-----29.80-0.03 61.0- 52.0---
2024-02-28 05:45 am S 4.1-----29.80- 62.1- 52.0---
2024-02-28 05:30 am S 2.9-----29.83- 63.5- 50.5---
2024-02-28 05:15 am S 2.9-----29.83- 63.3- 51.1---
2024-02-28 05:00 am S 4.1-----29.80-0.03 63.9- 50.7---
2024-02-28 04:45 amSSW 4.1-----29.83- 63.9- 50.7---
2024-02-28 04:30 am S 4.1-----29.80- 63.9- 51.3---
2024-02-28 04:15 am S 4.1-----29.80- 63.9- 51.6---
2024-02-28 04:00 am S 2.9-----29.80-0.06 63.7- 52.0---
2024-02-28 03:45 am S 4.1-----29.80- 63.5- 52.2---
2024-02-28 03:30 am S 4.1-----29.83- 63.9- 52.5---
2024-02-28 03:15 am S 4.1-----29.83- 63.7- 52.3---
2024-02-28 03:00 am S 4.1-----29.83-0.06 63.5- 52.5---